sat.trackr.live / text

‹ back to catalog

GEESAT-1 01

NORAD 52785 · 2022-058A

PAYLOAD ACTIVE UNKNOWN

§ Identity

Operator
Country
PRC
Launch date
2022-06-02
Launch site
XICLF
Launch vehicle
Mass (kg)
RCS (m²)

External: N2YO · Heavens-Above · Gunter

§ Orbital elements

Epoch: 2026-05-25T04:26:53.235168Z

Period
97.21 min
Inclination
49.9945°
Eccentricity
0.0022659
Mean motion
14.81287228 rev/d
Perigee alt
609.4 km
Apogee alt
641.1 km
Semi-major
7,003.4 km
B*
2.4540e-4
RAAN
308.7031°
Arg perigee
173.3458°
Mean anomaly
186.7784°
Rev number
21,652

§ Raw data

GEESAT-1 011 52785U 22058A   26145.18533837  .00001716  00000+0  24540-3 0  99922 52785  49.9945 308.7031 0022659 173.3458 186.7784 14.81287228216526

JSON: /api/v1/satellites/52785 · /tle

For live sub-satellite position, see the globe view (requires WebGL).

§ Visibility from observer

Set your observer location to see the next 7 days of passes ≥ 10°. The values pass through the URL so the page stays shareable.

No JS? Fill the form by hand. The geolocation button needs JavaScript.